This is the latest recevied weather packets stored in our database for station/object KD0OXW. If no packets are shown the sender has not sent any weather packets the latest 10 day(s).
| Time | Temp. | Humidity | Pressure | Rain* | Wind** | Luminosity | Snow |
|---|---|---|---|---|---|---|---|
| 1777763298 | 14.44° C | 38% | 1012.2 hPa | 0 mm | - | - | - |
| 1777762998 | 14.44° C | 40% | 1012 hPa | 0 mm | - | - | - |
| 1777762698 | 14.44° C | 39% | 1012 hPa | 0 mm | - | - | - |
| 1777762398 | 15° C | 36% | 1011.9 hPa | 0 mm | - | - | - |
| 1777762098 | 15° C | 36% | 1012.1 hPa | 0 mm | - | - | - |
| 1777761798 | 15° C | 35% | 1012 hPa | 0 mm | - | - | - |
| 1777761498 | 15.56° C | 36% | 1012.2 hPa | 0 mm | - | - | - |
| 1777761198 | 15.56° C | 36% | 1012.2 hPa | 0 mm | - | - | - |
| 1777760898 | 15.56° C | 35% | 1012.2 hPa | 0 mm | - | - | - |
| 1777760598 | 15.56° C | 34% | 1012.3 hPa | 0 mm | - | - | - |
| 1777760298 | 15.56° C | 34% | 1012.4 hPa | 0 mm | - | - | - |
| 1777759998 | 15.56° C | 34% | 1012.4 hPa | 0 mm | - | - | - |
| 1777759698 | 15.56° C | 33% | 1012.4 hPa | 0 mm | - | - | - |
| 1777759398 | 15.56° C | 37% | 1012.5 hPa | 0 mm | - | - | - |
| 1777759098 | 15° C | 34% | 1012.5 hPa | 0 mm | - | - | - |
| 1777758798 | 15.56° C | 34% | 1012.6 hPa | 0 mm | - | - | - |
| 1777758498 | 15.56° C | 33% | 1012.7 hPa | 0 mm | - | - | - |
| 1777758198 | 15° C | 34% | 1012.7 hPa | 0 mm | - | - | - |
| 1777757898 | 15° C | 33% | 1012.6 hPa | 0 mm | - | - | - |
| 1777757598 | 15.56° C | 31% | 1012.7 hPa | 0 mm | - | - | - |
| 1777757298 | 15.56° C | 31% | 1012.8 hPa | 0 mm | - | - | - |
| 1777756998 | 16.11° C | 33% | 1012.8 hPa | 0 mm | - | - | - |
| 1777756698 | 15.56° C | 34% | 1012.8 hPa | 0 mm | - | - | - |
| 1777756398 | 15° C | 33% | 1013.1 hPa | 0 mm | - | - | - |
| 1777756098 | 15° C | 33% | 1013.1 hPa | 0 mm | - | - | - |
* Rain latest hour (hover to see other rain measurements)
** Current wind speed in m/s (hover to see current wind gust speed)